Regional Weather Roundup
Issued by NWS Upton, NY

Current Version | Previous Version | Graphics & Text | Print | Product List | Glossary Off
Versions: 1 2 3 4 5 6 7 8 9 10 11 12 13 14 15 16 17 18 19 20 21 22 23 24 25 26 27 28 29 30 31 32 33 34 35 36 37 38 39 40 41 42 43 44 45 46 47 48 49 50

136
ASUS41 KOKX 260008
RWROKX

REGIONAL WEATHER ROUNDUP
NATIONAL WEATHER SERVICE NEW YORK NY
700 PM EST SAT FEB 25 2017

NOTE: "FAIR" INDICATES FEW OR NO CLOUDS BELOW 12,000 FEET WITH NO
SIGNIFICANT WEATHER AND/OR OBSTRUCTIONS TO VISIBILITY.

NYZ071-072-176-178-NJZ106-104-260100-
NEW YORK CITY METRO AREA

CITY           SKY/WX    TMP DP  RH WIND       PRES   REMARKS
Central Park   HVY RAIN  54  53  97 VRB5      29.55R FOG
Wall St Helipt NOT AVBL
LaGuardia APRT TSTM      59  55  87 W13       29.52R FOG
Kennedy INTL   TSTM      50  50 100 SW16      29.56R VSB 1/4
Breezy Point     N/A     50 N/A N/A SW10G16     N/A
Newark/Liberty TSTM      56  52  86 W15       29.55R FOG
Teterboro      TSTM      56  52  86 VRB5      29.51R FOG
$$

NYZ177-179-078>081-260100-
LONG ISLAND NEW YORK

CITY           SKY/WX    TMP DP  RH WIND       PRES   REMARKS
Jones Beach      N/A     48 N/A N/A S13G18      N/A
Matinecock PT  NOT AVBL
Farmingdale    CLOUDY    52  51  97 S13       29.50F VSB 1
MacArthur/ISP  FOG       51  51 100 S13       29.49F VSB 1/8
Shirley        FOG       52  52 100 S10G21    29.52F VSB 1/2
Westhampton    FOG       50  49  96 S6        29.54F VSB 1/2
Southampton    NOT AVBL
Bridgehampton  NOT AVBL
East Hampton   FOG       49  49  99 S7        29.52F VSB 3/4
Montauk          N/A     48  48 100 S8        29.54R
$$

NYZ052-065-067-260100-
HUDSON VALLEY

CITY           SKY/WX    TMP DP  RH WIND       PRES   REMARKS
White Plains   TSTM      57  55  93 W16G31    29.54R FOG
Newburgh       RAIN      46  45  93 NW18G30   29.56R FOG
Montgomery     HVY RAIN  47  43  86 W10G16    29.57R FOG
Poughkeepsie   RAIN      50  47  89 W8        29.54R FOG
Albany         TSTM      39  36  87 NW17G23   29.62R WCI  30
$$

NJZ001-105-106-008-010-013-015-019>022-104-260100-
NEW JERSEY

CITY           SKY/WX    TMP DP  RH WIND       PRES   REMARKS
Newark/Liberty TSTM      56  52  86 W15       29.55R FOG
Teterboro      TSTM      56  52  86 VRB5      29.51R FOG
Caldwell       RAIN      53  51  93 VRB6      29.56R FOG
Somerville       N/A     51  44  77 W13G18    29.57R
Linden         NOT AVBL
Sussex         LGT RAIN  49  45  86 N6        29.58S
Andover          N/A     48  43  82 VRB3G16   29.59R
Trenton        HVY RAIN  50  45  83 NW10G20   29.62R
Millville      LGT RAIN  52  49  89 NW16G25   29.60R
Atlantic City  CLOUDY    54  49  83 NW21G30   29.58R
Wrightstown    TSTM      52  48  87 NW14G26   29.57R
Toms River     TSTM      54  52  94 NW15G26   29.56R
Belmar         TSTM      57  55  93 W16G26    29.55R
$$

PAZ047>061-062-071-260100-
EASTERN PENNSYLVANIA

CITY           SKY/WX    TMP DP  RH WIND       PRES   REMARKS
Philadelphia   LGT RAIN  51  48  89 NW13      29.63R
Allentown      CLOUDY    48  38  68 NW7       29.61S
Scranton       CLOUDY    44  43  96 N5        29.60R
$$

CTZ002-004>006-009-010-012-RIZ004-006-007-MAZ004-011-015-260100-
SOUTHERN NEW ENGLAND
 IN CT

CITY           SKY/WX    TMP DP  RH WIND       PRES   REMARKS
Bradley INTL   LGT RAIN  59  57  93 S10       29.48F
Hartford       LGT RAIN  57  56  96 S13       29.49F FOG
Danbury        HVY RAIN  56  53  90 W17G29    29.53R FOG
Wtrbury/Oxford LGT RAIN  55  52  88 S12       29.50F VSB 1
Bridgeport     CLOUDY    55  52  89 S12       29.49F FOG
Meriden        LGT RAIN  57  54  89 S7        29.49F
New Haven      FOG       51  50  96 S12       29.50F VSB 1/2
Chester        FOG       54  54 100 S9        29.52F VSB<1/4
Groton         FOG       48  47  96 CALM      29.53S VSB 1/4
Wilimantic     CLOUDY    57  56  96 S9        29.53F FOG

 IN RI

CITY           SKY/WX    TMP DP  RH WIND       PRES   REMARKS
Providence     DRZL/FOG  52  51  97 S12       29.54R VSB 1/2
Block Island   FOG       48  48 100 S12       29.54R VSB 1/2
Westerly       FOG       50  48  93 SE9       29.54F VSB 1/2
 IN MA

CITY           SKY/WX    TMP DP  RH WIND       PRES   REMARKS
Boston         LGT RAIN  56  56 100 S7        29.52S FOG
Worcester      CLOUDY    56  53  90 S8        29.52S
Westfield      LGT RAIN  59  58  96 S14       29.46F
Provincetown   CLOUDY    53  52  96 SE13      29.52F FOG
Nantucket      FOG       48  47  96 SE13      29.52F VSB 1/2
$$

ANZ330-335-338-340-345-350-353-355-260100-
COASTAL MARINE OBSERVATIONS


STATION/POSITION TIME  SKY/WX   TEMP    WIND        PRES    VSBY  WAVE
                                AIR SEA DIR/SP/G                  HT/PER
                 (UTC)          (F)     (DEG/KT/KT) (MB)    (MI)  (FT/S)
NY HARB ENTRANCE 2250            47 44  180/ 12/ 14  998.5          5/ 9
20 S FIRE ISLAND 2350            47 44  160/ 10/ 12  999.0          6/11
GREAT SOUTH BAY  NOT AVBL
23 SSW MONTAUK P 2250            48 44               999.6          5/10
15 E BARNEGAT LI 2330               45                N/A           5/12
HUDSON CANYON    2250               49               999.6          7/11
KINGS POINT      2342            53 41               998.9
EXECUTION ROCKS  NOT AVBL
CENTRAL LI SOUND 2330            45     180/  4/  6   N/A           1/ 2
EASTERN LI SOUND NOT AVBL
ROBBINS REEF     2342            55     270/ 20/ 22  999.7
$$


>>>>>>>>>>>>>>>>>>>>>>>>>>>> KEY <<<<<<<<<<<<<<<<<<<<<<<<<<<
>                                                          <
>     SKY/WX - Sky Condition/Present Weather               <
>     TMP    - Temperature in Fahrenheit                   <
>     DP     - Dew Point in Fahrenheit                     <
>     RH     - Relative Humidity in Percent                <
>     WIND   - Direction (from) and Speed in MPH           <
>     PRES   - Mean Sea Level Pressure (inches of Hg)      <
>     WCI    - Wind Chill Index                            <
>     VSB    - VISIBILITY IN MILES                         <
>     HX     - HEAT INDEX                                  <
>     TC     - TEMPERATURE IN CELSIUS                      <
>     VRB    - VARIABLE WIND DIRECTION                     <
>                                                          <
>>>>>>>>>>>>>>>>>>>>>>>>>>>> KEY <<<<<<<<<<<<<<<<<<<<<<<<<<<




USA.gov is the U.S. government's official web portal to all federal, state and local government web resources and services.